Wind_Speed
33 28 29 32 35 31 26 27 27 32 31 32 31 33 34 37 38 41 43 46 47 50 52 53 53 55 56 59 62 65 67 68 69
35 37 37 36 31 28 31 29 30 32 32 33 33 36 38 40 41 43 45 49 51 53 54 54 55 56 59 61 65 66 67 70 70
37 40 42 42 39 37 33 32 30 32 32 34 35 37 40 42 44 46 49 51 53 55 55 56 57 59 61 63 66 68 69 72 70
36 37 37 36 37 36 32 30 33 33 34 36 37 40 43 45 48 50 52 53 56 55 55 57 59 61 64 66 69 70 72 74 72
34 33 32 35 33 29 29 33 33 34 37 39 41 44 46 48 51 52 54 56 55 56 58 60 62 64 66 67 70 73 75 74 76
33 33 33 32 29 30 35 37 36 38 39 41 44 46 48 50 52 53 53 55 56 59 60 62 65 66 68 69 73 76 75 77 80
36 33 34 31 33 37 40 40 39 39 41 43 44 46 47 49 50 53 55 57 58 61 64 66 68 69 70 72 75 77 78 81 84
37 36 36 36 39 42 41 41 41 42 44 45 48 49 50 52 54 57 58 60 62 64 66 70 72 72 73 76 80 81 83 85 89
39 39 40 41 43 42 43 44 46 48 49 50 51 52 53 56 58 61 63 64 65 68 71 72 73 74 77 82 84 85 87 90 94
44 44 45 46 46 46 47 48 49 52 53 54 55 55 57 60 63 65 68 67 69 73 73 74 75 77 82 84 86 88 92 95 98
45 45 46 46 47 49 49 50 52 53 54 55 57 60 62 65 68 69 69 71 73 75 76 76 79 82 85 87 88 92 95 99 102
46 46 46 48 49 49 50 51 53 55 57 60 61 62 66 69 70 72 72 74 77 77 78 79 82 85 88 89 93 96 101 103 105
50 49 50 50 51 53 53 56 57 59 61 63 62 67 70 71 74 74 76 80 80 81 81 83 85 89 91 93 98 100 101 107 109
54 54 53 54 55 57 58 60 61 64 64 62 67 70 71 76 74 78 83 83 82 83 83 86 90 92 94 98 100 103 105 110 110
57 57 57 58 60 61 63 64 65 66 66 67 71 72 75 76 78 82 84 82 83 86 88 90 92 95 98 101 104 107 108 112 109
62 62 62 63 64 66 67 68 70 70 70 71 71 73 77 78 81 82 83 85 87 90 92 94 96 99 102 106 108 109 112 107 108
65 65 67 67 69 70 70 72 71 72 70 69 73 74 79 80 80 85 88 90 91 94 96 97 100 102 106 110 112 115 108 106 105
66 68 70 71 73 74 73 69 65 68 73 76 77 77 78 80 83 88 92 95 96 99 100 103 105 109 111 113 115 114 109 105 103
66 66 67 68 68 66 65 68 72 76 77 77 80 81 81 82 85 90 95 97 101 104 105 108 110 113 113 116 114 111 103 102 96
69 70 71 71 71 71 73 77 80 81 83 83 83 84 84 87 90 91 96 99 104 109 110 112 113 115 116 117 113 105 103 98 88
Wind_Direction
261 256 262 266 268 271 276 282 283 287 286 286 290 292 293 293 296 299 301 305 309 311 315 318 320 323 326 329 332 335 336 336 334
258 254 263 263 267 273 282 280 282 282 282 287 290 292 295 296 297 301 302 306 309 311 315 318 320 322 325 328 332 334 333 334 332
258 256 260 264 273 278 279 281 277 278 285 289 292 297 298 297 299 301 303 308 311 314 317 318 320 323 325 329 330 331 332 331 330
262 263 263 264 268 270 274 275 276 282 287 291 297 298 300 301 302 304 306 308 311 313 316 319 320 323 325 327 329 330 329 329 328
262 260 260 263 265 264 267 271 275 288 292 296 297 299 300 302 304 306 307 308 310 314 316 318 320 323 324 325 327 328 327 326 327
261 260 261 262 259 264 267 272 280 288 295 296 298 299 300 303 304 306 307 308 312 314 316 318 320 322 322 324 326 325 326 326 328
256 257 255 255 260 264 268 274 283 289 293 294 296 297 298 301 304 306 307 310 314 315 317 317 319 319 320 323 322 325 325 326 327
253 254 256 257 260 265 273 283 287 289 290 291 292 294 296 301 305 307 310 313 314 315 315 317 318 319 321 321 323 325 326 326 325
252 254 257 260 266 273 279 281 283 285 287 290 293 296 297 301 306 309 312 313 313 313 314 315 317 319 319 321 324 324 325 324 325
253 251 255 261 267 272 275 278 282 287 290 294 295 296 300 304 308 310 311 311 311 313 314 315 316 318 320 321 323 324 323 323 325
256 256 259 263 267 271 276 279 284 287 292 293 297 297 300 305 308 309 310 309 311 313 314 314 317 318 318 321 321 321 322 323 324
260 262 264 268 270 275 280 283 284 289 291 294 296 296 302 305 306 308 307 309 312 311 313 315 314 316 318 318 319 320 322 322 321
262 265 267 271 274 277 282 284 287 290 292 295 296 299 301 301 304 305 306 309 310 311 312 313 315 316 317 317 318 321 320 319 322
264 267 270 273 276 279 282 285 288 290 293 295 296 298 298 302 303 304 305 308 309 310 311 312 313 314 316 317 318 319 319 319 321
266 268 270 274 276 279 282 285 287 290 292 295 296 298 299 299 302 303 305 306 307 308 309 311 312 313 315 315 317 318 318 320 320
266 269 271 274 276 279 281 284 286 289 292 296 296 296 298 300 301 302 303 305 306 307 309 311 311 313 314 316 316 317 318 320 319
266 269 271 272 275 277 279 282 285 291 294 291 294 296 298 300 299 300 302 303 305 306 308 310 311 312 313 316 317 317 319 317 318
268 271 273 275 277 279 283 288 289 288 291 291 293 295 297 297 298 299 301 302 305 306 308 309 311 312 314 314 317 317 316 316 317
268 271 274 277 280 282 282 284 286 287 290 291 293 295 295 294 294 297 300 302 304 306 307 309 310 312 314 316 316 317 314 315 316
265 267 270 273 275 277 280 283 285 287 288 290 292 294 294 294 295 297 298 301 302 304 307 308 310 312 314 314 315 314 315 314 314
Height
10917 10918 10917 10917 10917 10915 10914 10913 10911 10911 10909 10907 10905 10903 10901 10899 10896 10893 10890 10886 10884 10879 10875 10871 10866 10861 10856 10850 10845 10838 10832 10826 10819
10912 10913 10913 10912 10911 10910 10910 10908 10907 10906 10905 10903 10901 10898 10896 10894 10891 10888 10884 10881 10878 10873 10869 10864 10859 10854 10849 10843 10837 10831 10824 10819 10811
10906 10907 10907 10907 10906 10905 10904 10903 10903 10901 10900 10898 10895 10893 10891 10889 10886 10882 10879 10876 10871 10866 10862 10857 10852 10847 10842 10835 10829 10823 10817 10811 10804
10900 10900 10901 10900 10900 10900 10899 10899 10898 10896 10894 10892 10890 10888 10885 10883 10880 10876 10873 10869 10865 10860 10856 10851 10845 10840 10834 10828 10821 10815 10808 10802 10796
10894 10894 10894 10894 10894 10894 10895 10893 10892 10890 10889 10887 10884 10882 10879 10877 10873 10870 10866 10862 10858 10853 10848 10843 10838 10832 10826 10820 10814 10807 10800 10793 10786
10888 10888 10888 10888 10889 10889 10889 10888 10886 10885 10883 10881 10879 10876 10873 10870 10866 10862 10859 10855 10850 10845 10840 10835 10830 10824 10819 10812 10806 10799 10792 10784 10777
10882 10881 10882 10883 10883 10883 10883 10881 10880 10879 10877 10875 10872 10869 10866 10863 10859 10855 10851 10847 10842 10837 10831 10826 10821 10816 10810 10804 10799 10791 10783 10775 10767
10876 10875 10876 10876 10876 10875 10875 10874 10873 10872 10870 10868 10865 10862 10859 10856 10851 10847 10843 10839 10834 10829 10823 10816 10810 10805 10799 10794 10787 10780 10772 10764 10755
10870 10870 10870 10870 10870 10869 10868 10867 10865 10864 10862 10859 10857 10853 10850 10846 10842 10838 10834 10830 10825 10819 10813 10808 10801 10795 10788 10781 10774 10767 10759 10751 10742
10864 10864 10864 10864 10864 10863 10861 10859 10857 10855 10853 10850 10847 10843 10839 10836 10832 10828 10823 10819 10814 10809 10804 10797 10790 10785 10777 10769 10761 10754 10746 10738 10729
10857 10857 10857 10857 10856 10855 10854 10852 10850 10847 10845 10841 10837 10833 10829 10825 10821 10817 10813 10808 10804 10798 10793 10787 10779 10772 10766 10757 10749 10742 10734 10724 10714
10849 10850 10849 10849 10848 10847 10846 10844 10842 10839 10836 10833 10828 10823 10819 10815 10810 10806 10802 10797 10792 10788 10782 10776 10769 10761 10753 10745 10737 10728 10719 10711 10701
10841 10842 10841 10840 10839 10838 10837 10835 10832 10830 10827 10823 10819 10814 10809 10804 10799 10795 10790 10786 10781 10775 10770 10766 10757 10748 10741 10732 10724 10716 10705 10694 10687
10832 10832 10832 10831 10830 10828 10827 10825 10822 10820 10817 10813 10809 10805 10797 10794 10788 10783 10778 10775 10769 10763 10761 10751 10746 10737 10730 10721 10712 10703 10694 10681 10667
10822 10822 10822 10821 10820 10818 10816 10814 10812 10808 10806 10804 10798 10791 10787 10782 10777 10771 10765 10762 10758 10751 10744 10741 10732 10724 10718 10708 10698 10689 10677 10666 10655
10811 10811 10812 10811 10810 10808 10806 10803 10801 10797 10794 10792 10785 10779 10775 10770 10763 10759 10753 10748 10745 10738 10733 10725 10719 10711 10701 10694 10684 10674 10661 10650 10637
10799 10800 10800 10800 10799 10796 10794 10792 10790 10787 10781 10777 10774 10770 10763 10758 10751 10741 10737 10733 10729 10723 10718 10712 10704 10695 10686 10676 10665 10654 10645 10633 10623
10788 10788 10788 10787 10787 10784 10783 10781 10779 10775 10769 10764 10760 10759 10754 10746 10737 10728 10720 10715 10711 10703 10700 10694 10687 10678 10671 10659 10649 10638 10627 10616 10606
10777 10776 10775 10775 10774 10772 10769 10767 10765 10762 10758 10753 10746 10742 10739 10733 10728 10719 10707 10699 10693 10687 10683 10677 10670 10660 10653 10643 10632 10622 10609 10598 10589
10763 10762 10762 10761 10760 10758 10756 10754 10751 10747 10745 10740 10735 10727 10722 10715 10711 10707 10698 10689 10677 10671 10665 10659 10653 10644 10636 10623 10615 10604 10595 10583 10573